Regional Weather Roundup
Issued by NWS

Home | Current Version | Previous Version | Graphics & Text | Print | Product List | Glossary On
Versions: 1 2 3 4 5 6 7 8 9 10 11 12 13 14 15 16 17 18 19 20 21 22 23 24 25 26 27 28 29 30 31 32 33 34 35 36 37 38 39 40 41 42 43 44 45 46 47 48 49 50
000
ASUS43 KTOP 300408
RWRKS

WEATHER ROUNDUP FOR KANSAS
NATIONAL WEATHER SERVICE GOODLAND KS
1100 PM CDT SAT APR 29 2017

NOTE:  "FAIR" INDICATES FEW OR NO CLOUDS BELOW 12,000 FEET WITH NO
SIGNIFICANT WEATHER AND/OR OBSTRUCTIONS TO VISIBILITY.

KSZ001>006-013>018-027>032-041>047-300500-
NORTHWEST KANSAS

CITY           SKY/WX    TMP DP  RH WIND       PRES   REMARKS
GOODLAND       CLOUDY    34  31  88 N22G30    30.04R WCI  22
HAYS           MIX PCPN  36  35  96 N22       29.92F WCI  25
HILL CITY      LGT SNOW  34  34 100 N20       29.99F FOG     WCI  23
RUSSELL        RAIN      38  36  92 N26G33    29.89R FOG     WCI  26
$$

KSZ061>065-074>080-084>089-300500-
SOUTHWEST KANSAS

CITY           SKY/WX    TMP DP  RH WIND       PRES   REMARKS
DODGE CITY     LGT SNOW  35  34  96 N25G37    29.84F FOG     WCI  23
ELKHART          N/A     31  36 100 N22         N/A  WCI  18
GARDEN CITY    FLURRIES  34  31  88 N35G43    29.89F WCI  19
GREAT BEND     RAIN      40  38  93 N31G39    29.82F WCI  28
LIBERAL        LGT RAIN  34  33  96 N28G35    29.83F FOG     WCI  21
PRATT          LGT RAIN  38  37  97 N28G35    29.74F WCI  26
$$

KSZ066>073-081>083-090>101-300500-
SOUTHEAST KANSAS

CITY           SKY/WX    TMP DP  RH WIND       PRES   REMARKS
CHANUTE        RAIN      61  58  90 E22G37    29.59F FOG
COFFEYVILLE    LGT RAIN  58  57  97 NE17G25   29.59F
HUTCHINSON     LGT RAIN  43  41  93 N13G25    29.79R FOG
MEDICINE LODGE   N/A    N/A N/A N/A N20G35    29.71F
NEWTON         LGT RAIN  43  42  97 NE18G26   29.74F FOG
PARSONS        LGT RAIN  59  57  93 VRB7G18   29.63F
WICHITA INTL   LGT RAIN  45  44  97 NE24G35   29.70F FOG
WICHITA JABRA  LGT RAIN  45  44  97 NE23G29   29.72S FOG
WICHITA MCCONL LGT RAIN  45  44  94 NE23G31   29.69F FOG
WINFIELD       LGT RAIN  49  47  93 NE14      29.64F FOG
$$

KSZ007>012-019>026-033>040-048>060-102>105-300500-
NORTHEAST KANSAS

CITY           SKY/WX    TMP DP  RH WIND       PRES   REMARKS
CONCORDIA      LGT RAIN  40  39  97 NE21G31   29.90R WCI  30
EMPORIA        LGT RAIN  44  44 100 NE21G26   29.74F FOG
LAWRENCE       LGT RAIN  45  44  97 NE17G23   29.75F
MANHATTAN      CLOUDY    44  44 100 NE18G26   29.84R
MARYSVILLE     DRIZZLE   41  39  93 NE21G28   29.89F
OLATHE IND     LGT RAIN  45  43  93 E15G21    29.71F
OLATHE EXE     RAIN      43  43 100 E16G24    29.77F FOG
SALINA         LGT RAIN  43  41  93 NE20G25   29.84S FOG
TOPEKA BILLARD LGT RAIN  45  44  97 N8        29.82F
TOPEKA FORBES  CLOUDY    46  43  89 NE9       29.81R
$$




USA.gov is the U.S. government's official web portal to all federal, state and local government web resources and services.